Location: Newark
(52.3500°N, 175.9667°E)
Time: 22:43:14
(UTC+00:00)

Altair - Pass Details

Date: 23 April 2021
Orbit: 1501 x 1683 km, 47.2° (Epoch: 13 May)

Event Time Altitude Azimuth Distance (km) Brightness Sun altitude
Rises 17:31:50 0° 229° (SW) 4,892 9.6 3.7°
Reaches altitude 10° 17:35:09 10° 225° (SW) 3,887 9.1 4.2°
Maximum altitude 17:44:29 49° 154° (SSE) 1,996 8.4 5.6°
Drops below altitude 10° 17:53:30 10° 84° (E) 3,760 12.4 6.9°
Sets 17:56:38 0° 79° (E) 4,721 12.8 7.4°
